Regional Weather Roundup
Issued by NWS

Home | Current Version | Previous Version | Graphics & Text | Print | Product List | Glossary Off
Versions: 1 2 3 4 5 6 7 8 9 10 11 12 13 14 15 16 17 18 19 20 21 22 23 24 25 26 27 28 29 30 31 32 33 34 35 36 37 38 39 40 41 42 43 44 45 46 47 48 49 50

000
ASUS45 KCYS 261110
RWRWY

WYOMING REGIONAL WEATHER ROUNDUP
NATIONAL WEATHER SERVICE CHEYENNE WY
500 AM MDT WED JUL 26 2017

NOTE:  "FAIR" INDICATES FEW OR NO CLOUDS BELOW 12,000 FEET
WITH NO SIGNIFICANT WEATHER AND/OR OBSTRUCTIONS TO VISIBILITY.

WYZ001-261200-
YELLOWSTONE NATIONAL PARK

CITY           SKY/WX    TMP DP  RH WIND       PRES   REMARKS
LK YELLOWSTONE   N/A     45  45 100 CALM      30.40S
W YELLOWSTONE  NOT AVBL

$$
WYZ002>013-054>058-071-098>099-261200-
NORTHERN WYOMING

CITY           SKY/WX    TMP DP  RH WIND       PRES   REMARKS
JACKSON        FAIR      46  46 100 N5        30.32R
CODY           FAIR      53  50  89 CALM      30.22R
GREYBULL       FAIR      54  50  86 CALM      30.16R
WORLAND        FAIR      54  51  90 SE3       30.16S
SHERIDAN       FAIR      56  54  93 S5        30.17R
BUFFALO        MOCLDY    61  53  75 W7        30.21R
GILLETTE       FAIR      61  60  97 MISG      30.18R
HULETT         FAIR      63  55  77 CALM      30.19S
NEWCASTLE      DRIZZLE   61  59  94 SE5       30.20S

$$
WYZ014>020-022>026-101>103-261200-
CENTRAL WYOMING

CITY           SKY/WX    TMP DP  RH WIND       PRES   REMARKS
BIG PINEY      FAIR      50  48  93 NE3       30.33S
PINEDALE       FAIR      46  45  93 W6        30.35S
DUBOIS         FAIR      45  41  87 W8        30.34S
LANDER         FAIR      59  49  69 NW7       30.24R
RIVERTON       FAIR      55  52  89 NW8       30.24S
CASPER         CLOUDY    60  56  86 CALM      30.23R
DOUGLAS        LGT RAIN  62  59  90 SW3       30.23R

$$
WYZ021-027>030-104>119-261200-
SOUTHERN WYOMING

CITY           SKY/WX    TMP DP  RH WIND       PRES   REMARKS
EVANSTON       MOCLDY    57  54  89 E7        30.32S
KEMMERER         N/A     55  46  71 N8        30.35R
FORT BRIDGER   CLOUDY    58  52  80 W6        30.35S
ROCK SPRINGS   MOCLDY    57  52  83 E3        30.31S
RAWLINS        CLOUDY    59  57  93 CALM      30.30R
SARATOGA       CLOUDY    57  57 100 NW3       30.31S
LARAMIE        CLOUDY    57  56  96 CALM      30.31S
CHEYENNE       CLOUDY    62  57  83 N9        30.26R
TORRINGTON     CLOUDY    63  58  83 NW5       30.15R
PINE BLUFFS    PTSUNNY   63  59  88 N14       30.19R

$$



USA.gov is the U.S. government's official web portal to all federal, state and local government web resources and services.